Weather History for Brenham, TX

Change the Weather History Date:

Monday, September 9, 2013

  Actual Average (KCLL) Record (KCLL)
Temperature  
Mean Temperature 84 °F 82 °F  
Max Temperature 94 °F 93 °F 101 °F (1924)
Min Temperature 73 °F 72 °F 57 °F (1918)
Degree Days  
Heating Degree Days 0 0  
Month to date heating degree days 0  
Since 1 July heating degree days 0  
Cooling Degree Days 18 17  
Month to date cooling degree days 161  
Year to date cooling degree days 2507  
Growing Degree Days 34 (Base 50)    
Moisture  
Dew Point 72 °F    
Average Humidity 79    
Maximum Humidity 91    
Minimum Humidity 42    
Precipitation  
Precipitation 0.48 in 0.12 in 2.04 in (1949)
Month to date precipitation 1.00  
Year to date precipitation 26.52  
Sea Level Pressure  
Sea Level Pressure 29.97 in    
Wind  
Wind Speed 2 mph (SE)    
Max Wind Speed 20 mph    
Max Gust Speed 33 mph    
Visibility 9 miles    
Events Rain , Thunderstorm    
T = Trace of Precipitation, MM = Missing Value Source: NWS Daily Summary

Daily Weather History Graph

Daily Weather History Graph

Search for Another Location

Airport:

Trip Planner

Search our weather history database for the weather conditions in past years. The results will help you decide how hot, cold, wet, or windy it might be!

Date:

Astronomy

Sep. 09, 2013 Rise Set
Actual Time 7:06 AM CDT 7:38 PM CDT
Civil Twilight 6:42 AM CDT 8:02 PM CDT
Nautical Twilight 6:14 AM CDT 8:30 PM CDT
Astronomical Twilight 5:45 AM CDT 8:59 PM CDT
Moon 11:07 AM CDT (9/9) 10:18 PM CDT (9/9)
Length of Visible Light 13h 19m
Length of Day
12h 31m
Waxing Crescent, 19% of the Moon is Illuminated
Sep 9
Waxing Crescent
Sep 12
First Quarter
Sep 19
Full
Sep 26
Last Quarter
Oct 4
New

Hourly Weather History & Observations

Time (CDT) Temp. Heat Index Dew Point Humidity Pressure Visibility Wind Dir Wind Speed Gust Speed Precip Events Conditions
12:15 AM 77.2 °F - 72.0 °F 84% 29.96 in 10.0 mi Calm Calm - N/A   Clear
12:35 AM 77.0 °F - 72.0 °F 84% 29.95 in 10.0 mi Calm Calm - N/A   Clear
12:55 AM 77.5 °F - 72.0 °F 83% 29.95 in 10.0 mi Calm Calm - N/A   Clear
1:15 AM 77.0 °F - 71.8 °F 84% 29.95 in 10.0 mi ENE 3.5 mph - N/A   Clear
1:35 AM 76.5 °F - 71.8 °F 85% 29.95 in 10.0 mi Calm Calm - N/A   Clear
1:55 AM 76.1 °F - 72.0 °F 87% 29.95 in 10.0 mi Calm Calm - N/A   Clear
2:15 AM 76.3 °F - 72.0 °F 86% 29.95 in 10.0 mi Calm Calm - N/A   Clear
2:35 AM 76.1 °F - 72.0 °F 87% 29.95 in 10.0 mi Calm Calm - N/A   Clear
2:55 AM 76.1 °F - 72.1 °F 87% 29.95 in 10.0 mi Calm Calm - N/A   Clear
3:15 AM 75.9 °F - 72.0 °F 87% 29.95 in 10.0 mi Calm Calm - N/A   Clear
3:35 AM 75.4 °F - 71.8 °F 89% 29.94 in 10.0 mi Calm Calm - N/A   Clear
3:55 AM 75.2 °F - 71.8 °F 89% 29.95 in 10.0 mi Calm Calm - N/A   Clear
4:15 AM 75.2 °F - 71.8 °F 89% 29.94 in 10.0 mi Calm Calm - N/A   Clear
4:35 AM 74.8 °F - 71.8 °F 90% 29.95 in 10.0 mi Calm Calm - N/A   Clear
4:55 AM 74.7 °F - 71.6 °F 90% 29.95 in 10.0 mi Calm Calm - N/A   Clear
5:15 AM 74.7 °F - 71.6 °F 90% 29.95 in 10.0 mi Calm Calm - N/A   Clear
5:35 AM 73.9 °F - 71.1 °F 91% 29.95 in 7.0 mi Calm Calm - N/A   Clear
5:55 AM 73.8 °F - 71.1 °F 91% 29.96 in 7.0 mi Calm Calm - N/A   Clear
6:15 AM 74.3 °F - 71.6 °F 91% 29.96 in 10.0 mi Calm Calm - N/A   Clear
6:35 AM 74.3 °F - 71.6 °F 91% 29.97 in 10.0 mi Calm Calm - N/A   Clear
6:55 AM 74.1 °F - 71.2 °F 91% 29.97 in 7.0 mi Calm Calm - N/A   Clear
7:15 AM 74.3 °F - 71.6 °F 91% 29.98 in 7.0 mi Calm Calm - N/A   Clear
7:35 AM 73.9 °F - 71.1 °F 91% 29.98 in 5.0 mi Calm Calm - N/A   Clear
7:55 AM 74.7 °F - 72.0 °F 91% 29.98 in 7.0 mi NNE 3.5 mph - N/A   Clear
8:15 AM 76.1 °F - 73.2 °F 91% 29.99 in 10.0 mi Calm Calm - N/A   Clear
8:35 AM 77.5 °F - 74.3 °F 90% 29.99 in 10.0 mi ENE 4.6 mph - N/A   Clear
8:55 AM 79.3 °F - 75.2 °F 87% 30.00 in 10.0 mi East 4.6 mph - N/A   Clear
9:15 AM 80.6 °F 86.0 °F 75.0 °F 83% 30.00 in 10.0 mi East 4.6 mph - N/A   Clear
9:35 AM 82.0 °F 88.6 °F 75.0 °F 79% 30.00 in 10.0 mi East 5.8 mph - N/A   Clear
9:55 AM 84.2 °F 91.9 °F 74.7 °F 73% 30.01 in 10.0 mi East 5.8 mph - N/A   Clear
10:15 AM 84.7 °F 92.8 °F 74.8 °F 72% 30.02 in 10.0 mi ESE 8.1 mph - N/A   Scattered Clouds
10:35 AM 86.4 °F 94.2 °F 73.6 °F 66% 30.01 in 10.0 mi East 9.2 mph - N/A   Scattered Clouds
10:55 AM 87.4 °F 95.3 °F 73.2 °F 63% 30.01 in 10.0 mi SE 5.8 mph - N/A   Clear
11:15 AM 87.4 °F 94.0 °F 72.0 °F 60% 30.01 in 10.0 mi East 5.8 mph - N/A   Scattered Clouds
11:35 AM 89.1 °F 95.5 °F 71.4 °F 56% 30.01 in 10.0 mi ESE 5.8 mph - N/A   Scattered Clouds
11:55 AM 90.3 °F 96.7 °F 71.1 °F 53% 30.00 in 10.0 mi ESE 9.2 mph - N/A   Scattered Clouds
12:15 PM 90.5 °F 97.0 °F 71.4 °F 53% 30.00 in 10.0 mi ESE 6.9 mph - N/A   Scattered Clouds
12:35 PM 90.9 °F 97.3 °F 71.2 °F 52% 29.99 in 10.0 mi ESE 10.4 mph - N/A   Mostly Cloudy
12:55 PM 92.1 °F 97.2 °F 69.1 °F 47% 29.99 in 10.0 mi ESE 8.1 mph - N/A   Scattered Clouds
1:15 PM 90.7 °F 95.9 °F 70.0 °F 50% 29.98 in 10.0 mi East 5.8 mph - N/A   Mostly Cloudy
1:35 PM 91.6 °F 96.7 °F 69.3 °F 48% 29.98 in 10.0 mi ESE 4.6 mph - N/A   Scattered Clouds
1:55 PM 93.2 °F 98.3 °F 68.7 °F 45% 29.97 in 10.0 mi ESE 5.8 mph - N/A   Scattered Clouds
2:15 PM 92.5 °F 95.9 °F 66.9 °F 43% 29.95 in 10.0 mi East 5.8 mph - N/A   Scattered Clouds
2:35 PM 92.5 °F 97.4 °F 69.1 °F 46% 29.95 in 10.0 mi East 10.4 mph 19.6 mph N/A Thunderstorm Scattered Clouds
2:55 PM 94.5 °F 99.1 °F 68.2 °F 42% 29.94 in 10.0 mi East 12.7 mph 17.3 mph N/A Thunderstorm Scattered Clouds
3:15 PM 92.7 °F 96.2 °F 67.1 °F 43% 29.94 in 10.0 mi ESE 11.5 mph 17.3 mph N/A Thunderstorm Scattered Clouds
3:35 PM 89.4 °F 94.0 °F 69.3 °F 51% 29.94 in 10.0 mi SSE 9.2 mph - N/A Thunderstorm Thunderstorm
3:55 PM 88.2 °F 94.1 °F 71.2 °F 57% 29.95 in 10.0 mi South 5.8 mph - N/A Thunderstorm Clear
4:15 PM 81.9 °F 85.0 °F 68.7 °F 64% 29.98 in 10.0 mi South 19.6 mph 33.4 mph N/A Thunderstorm Thunderstorm
4:35 PM 75.2 °F - 70.7 °F 86% 29.97 in 0.8 mi WSW 6.9 mph 12.7 mph 0.44 in Rain , Thunderstorm Heavy Thunderstorms and Rain
4:55 PM 75.7 °F - 71.6 °F 87% 29.98 in 10.0 mi SSW 5.8 mph - 0.47 in Rain Rain
5:15 PM 76.3 °F - 72.0 °F 86% 29.97 in 10.0 mi SSW 4.6 mph - N/A Rain Light Rain
5:35 PM 77.4 °F - 73.4 °F 88% 29.97 in 10.0 mi South 5.8 mph - 0.01 in Rain Light Rain
5:55 PM 77.9 °F - 73.6 °F 86% 29.96 in 10.0 mi South 5.8 mph - 0.01 in Rain Light Rain
6:15 PM 78.3 °F - 73.6 °F 85% 29.96 in 10.0 mi SSW 3.5 mph - N/A   Clear
6:35 PM 78.8 °F - 73.9 °F 85% 29.96 in 10.0 mi SW 3.5 mph - N/A   Clear
6:55 PM 78.8 °F - 73.9 °F 85% 29.96 in 10.0 mi WSW 3.5 mph - N/A   Clear
7:15 PM 78.6 °F - 74.1 °F 86% 29.96 in 10.0 mi Calm Calm - N/A   Clear
7:35 PM 78.8 °F - 73.9 °F 85% 29.96 in 10.0 mi Calm Calm - N/A   Clear
7:55 PM 78.1 °F - 74.5 °F 89% 29.96 in 10.0 mi Calm Calm - N/A   Clear
8:15 PM 77.7 °F - 74.3 °F 89% 29.97 in 10.0 mi Calm Calm - N/A   Clear
8:35 PM 77.4 °F - 74.3 °F 90% 29.97 in 10.0 mi Calm Calm - N/A   Clear
8:55 PM 77.4 °F - 74.3 °F 90% 29.98 in 10.0 mi Calm Calm - N/A   Clear
9:15 PM 77.4 °F - 74.3 °F 90% 29.98 in 7.0 mi Calm Calm - N/A   Clear
9:35 PM 77.4 °F - 74.3 °F 90% 29.99 in 10.0 mi Calm Calm - N/A   Clear
9:55 PM 77.2 °F - 74.1 °F 90% 29.99 in 10.0 mi Calm Calm - N/A   Clear
10:15 PM 76.6 °F - 73.8 °F 91% 29.99 in 4.0 mi Calm Calm - N/A   Clear
10:35 PM 76.6 °F - 73.8 °F 91% 29.99 in 7.0 mi Calm Calm - N/A   Clear
10:55 PM 77.0 °F - 73.9 °F 90% 29.98 in 5.0 mi ENE 3.5 mph - N/A   Clear
11:15 PM 77.0 °F - 74.1 °F 91% 29.98 in 5.0 mi Calm Calm - N/A   Clear
11:35 PM 77.0 °F - 74.1 °F 91% 29.98 in 10.0 mi Calm Calm - N/A   Clear
11:55 PM 77.0 °F - 73.9 °F 90% 29.99 in 10.0 mi Calm Calm - N/A   Clear